QPF
0.02 0.01 0.01 0.01 0.01 0.01 0.01 0.02 0.03 0.03 0.03 0.02 0.01 0.02 0.03 0.04 0.04 0.04 0.02 0.02 0.01 0.01 0.02 0.04 0.05 0.05 0.04 0.04 0.03 0.02 0.03 0.04 0.03 0.02 0.02 0.01 0.01 0.00 0.00 0.01 0.01 0.01 0.01
0.02 0.02 0.01 0.02 0.01 0.01 0.01 0.01 0.02 0.02 0.02 0.02 0.01 0.01 0.02 0.03 0.04 0.04 0.04 0.03 0.02 0.02 0.02 0.02 0.03 0.04 0.04 0.04 0.04 0.04 0.03 0.03 0.03 0.02 0.02 0.01 0.01 0.01 0.01 0.01 0.01 0.02 0.03
0.02 0.02 0.02 0.02 0.02 0.02 0.02 0.02 0.02 0.01 0.01 0.01 0.01 0.01 0.01 0.01 0.02 0.03 0.03 0.03 0.02 0.02 0.02 0.02 0.02 0.03 0.03 0.03 0.03 0.03 0.03 0.03 0.03 0.02 0.02 0.01 0.02 0.02 0.03 0.02 0.03 0.03 0.05
0.02 0.02 0.02 0.02 0.02 0.03 0.03 0.03 0.02 0.02 0.02 0.01 0.02 0.01 0.01 0.01 0.01 0.01 0.02 0.03 0.03 0.03 0.03 0.03 0.02 0.03 0.04 0.04 0.04 0.03 0.03 0.03 0.02 0.01 0.02 0.02 0.01 0.03 0.04 0.04 0.04 0.04 0.05
0.02 0.02 0.02 0.02 0.03 0.03 0.04 0.04 0.02 0.01 0.01 0.01 0.01 0.01 0.01 0.01 0.01 0.01 0.02 0.02 0.02 0.03 0.03 0.04 0.04 0.03 0.04 0.05 0.04 0.03 0.04 0.04 0.03 0.01 0.01 0.01 0.01 0.02 0.02 0.03 0.04 0.04 0.05
0.01 0.02 0.03 0.03 0.03 0.03 0.04 0.04 0.02 0.01 0.01 0.01 0.01 0.01 0.01 0.01 0.01 0.02 0.02 0.02 0.03 0.03 0.03 0.04 0.05 0.05 0.05 0.05 0.05 0.05 0.04 0.04 0.03 0.02 0.01 0.01 0.01 0.01 0.02 0.03 0.04 0.04 0.04
0.02 0.02 0.03 0.02 0.02 0.02 0.03 0.04 0.02 0.01 0.01 0.01 0.01 0.01 0.01 0.01 0.01 0.01 0.01 0.01 0.02 0.03 0.03 0.03 0.03 0.03 0.03 0.04 0.05 0.06 0.05 0.04 0.03 0.02 0.01 0.01 0.01 0.01 0.02 0.03 0.04 0.03 0.04
0.03 0.02 0.02 0.01 0.02 0.03 0.04 0.05 0.04 0.03 0.02 0.01 0.01 0.01 0.01 0.01 0.01 0.01 0.01 0.00 0.01 0.01 0.02 0.03 0.04 0.03 0.02 0.03 0.04 0.05 0.05 0.04 0.04 0.02 0.01 0.01 0.02 0.02 0.03 0.03 0.04 0.04 0.05
0.02 0.02 0.01 0.01 0.01 0.03 0.05 0.06 0.05 0.05 0.04 0.03 0.01 0.01 0.01 0.02 0.02 0.02 0.01 0.01 0.01 0.01 0.01 0.01 0.02 0.03 0.03 0.02 0.03 0.04 0.03 0.04 0.04 0.04 0.02 0.02 0.03 0.03 0.03 0.03 0.03 0.04 0.04
0.01 0.02 0.01 0.01 0.01 0.02 0.03 0.04 0.04 0.04 0.03 0.03 0.03 0.02 0.02 0.02 0.02 0.02 0.03 0.02 0.01 0.01 0.01 0.02 0.02 0.02 0.02 0.03 0.02 0.03 0.03 0.03 0.03 0.04 0.03 0.02 0.03 0.03 0.03 0.03 0.02 0.03 0.03
0.02 0.02 0.02 0.01 0.01 0.01 0.02 0.03 0.03 0.03 0.03 0.02 0.02 0.03 0.03 0.02 0.01 0.02 0.03 0.03 0.03 0.02 0.01 0.01 0.01 0.02 0.03 0.03 0.03 0.03 0.03 0.04 0.03 0.04 0.05 0.04 0.03 0.03 0.03 0.02 0.02 0.01 0.01
0.02 0.02 0.02 0.01 0.01 0.01 0.02 0.02 0.03 0.03 0.03 0.02 0.02 0.03 0.03 0.02 0.01 0.02 0.04 0.05 0.04 0.03 0.02 0.02 0.02 0.03 0.03 0.04 0.04 0.03 0.03 0.04 0.05 0.05 0.05 0.06 0.04 0.03 0.03 0.02 0.02 0.01 0.01
0.02 0.02 0.02 0.01 0.02 0.01 0.01 0.02 0.02 0.02 0.02 0.02 0.02 0.02 0.03 0.03 0.03 0.03 0.05 0.05 0.04 0.03 0.03 0.03 0.04 0.04 0.04 0.04 0.04 0.04 0.04 0.03 0.04 0.05 0.05 0.05 0.05 0.04 0.04 0.03 0.02 0.02 0.02
0.01 0.02 0.02 0.01 0.02 0.02 0.02 0.02 0.02 0.02 0.02 0.02 0.02 0.02 0.03 0.03 0.03 0.03 0.04 0.04 0.05 0.04 0.03 0.03 0.03 0.03 0.02 0.02 0.02 0.02 0.02 0.03 0.04 0.04 0.05 0.06 0.06 0.05 0.05 0.05 0.04 0.03 0.02
0.02 0.02 0.01 0.01 0.02 0.02 0.02 0.02 0.02 0.02 0.03 0.03 0.03 0.03 0.03 0.03 0.03 0.04 0.04 0.04 0.05 0.05 0.04 0.03 0.03 0.03 0.03 0.02 0.02 0.02 0.02 0.02 0.03 0.04 0.04 0.04 0.05 0.05 0.05 0.06 0.06 0.05 0.03
0.02 0.02 0.01 0.01 0.01 0.01 0.01 0.02 0.02 0.02 0.02 0.02 0.03 0.02 0.02 0.02 0.02 0.03 0.03 0.04 0.05 0.06 0.05 0.04 0.03 0.03 0.02 0.02 0.02 0.01 0.01 0.01 0.02 0.03 0.03 0.04 0.04 0.04 0.05 0.06 0.07 0.06 0.05
0.02 0.02 0.01 0.01 0.01 0.01 0.01 0.01 0.01 0.01 0.01 0.01 0.02 0.02 0.01 0.01 0.01 0.01 0.01 0.03 0.04 0.06 0.05 0.04 0.03 0.03 0.03 0.02 0.02 0.02 0.02 0.01 0.01 0.02 0.03 0.04 0.04 0.04 0.04 0.05 0.06 0.06 0.05
0.04 0.04 0.03 0.02 0.01 0.01 0.01 0.01 0.01 0.01 0.01 0.01 0.01 0.01 0.01 0.01 0.01 0.01 0.01 0.01 0.02 0.03 0.02 0.02 0.03 0.03 0.03 0.03 0.03 0.04 0.04 0.03 0.03 0.03 0.03 0.03 0.04 0.05 0.05 0.05 0.06 0.06 0.05
0.05 0.05 0.05 0.03 0.02 0.02 0.01 0.02 0.02 0.02 0.02 0.01 0.01 0.01 0.01 0.01 0.01 0.01 0.01 0.01 0.01 0.02 0.02 0.02 0.03 0.03 0.02 0.02 0.03 0.04 0.05 0.06 0.06 0.05 0.04 0.03 0.03 0.03 0.04 0.05 0.05 0.06 0.06
0.02 0.03 0.03 0.04 0.04 0.04 0.04 0.03 0.03 0.03 0.03 0.02 0.02 0.02 0.02 0.01 0.01 0.01 0.02 0.02 0.02 0.03 0.03 0.03 0.03 0.02 0.02 0.02 0.03 0.03 0.03 0.04 0.04 0.04 0.04 0.02 0.01 0.01 0.02 0.03 0.04 0.05 0.06
0.01 0.01 0.01 0.01 0.02 0.02 0.03 0.03 0.03 0.03 0.03 0.02 0.02 0.02 0.02 0.01 0.01 0.01 0.02 0.02 0.02 0.03 0.04 0.06 0.04 0.03 0.02 0.02 0.03 0.03 0.03 0.02 0.02 0.02 0.02 0.02 0.02 0.02 0.02 0.02 0.03 0.03 0.05
0.00 0.00 0.00 0.00 0.01 0.01 0.02 0.01 0.01 0.01 0.02 0.02 0.02 0.01 0.02 0.02 0.01 0.01 0.02 0.02 0.02 0.02 0.03 0.04 0.03 0.03 0.03 0.03 0.03 0.03 0.03 0.02 0.02 0.02 0.01 0.01 0.01 0.01 0.02 0.02 0.02 0.03 0.03
0.00 0.00 0.00 0.00 0.00 0.01 0.01 0.01 0.01 0.01 0.01 0.01 0.01 0.01 0.01 0.01 0.01 0.01 0.02 0.02 0.02 0.02 0.02 0.03 0.02 0.02 0.02 0.02 0.02 0.02 0.02 0.02 0.02 0.02 0.02 0.02 0.02 0.02 0.02 0.02 0.02 0.02 0.02
0.00 0.00 0.00 0.00 0.00 0.00 0.01 0.01 0.01 0.01 0.01 0.01 0.01 0.01 0.01 0.01 0.02 0.02 0.02 0.02 0.03 0.03 0.03 0.02 0.02 0.01 0.01 0.01 0.01 0.01 0.02 0.02 0.02 0.02 0.02 0.02 0.02 0.02 0.02 0.03 0.02 0.02 0.02
0.00 0.00 0.00 0.00 0.00 0.00 0.01 0.01 0.01 0.01 0.01 0.01 0.01 0.01 0.01 0.02 0.02 0.02 0.02 0.02 0.03 0.03 0.02 0.02 0.02 0.02 0.02 0.02 0.01 0.01 0.02 0.02 0.02 0.02 0.02 0.02 0.01 0.01 0.02 0.02 0.02 0.02 0.02
0.01 0.01 0.01 0.01 0.01 0.01 0.01 0.01 0.01 0.01 0.01 0.01 0.01 0.02 0.02 0.02 0.02 0.02 0.02 0.03 0.04 0.03 0.03 0.02 0.01 0.01 0.02 0.02 0.02 0.02 0.02 0.02 0.02 0.02 0.02 0.02 0.02 0.01 0.01 0.01 0.01 0.01 0.01
MSLP
1010.97 1011.80 1012.58 1013.28 1013.90 1014.44 1014.91 1015.34 1015.75 1016.18 1016.63 1017.11 1017.62 1018.14 1018.64 1019.12 1019.57 1019.96 1020.32 1020.65 1020.96 1021.26 1021.57 1021.87 1022.18 1022.47 1022.73 1022.95 1023.13 1023.26 1023.34 1023.37 1023.36 1023.32 1023.24 1023.12 1022.96 1022.77 1022.55 1022.29 1022.01 1021.72 1021.43
1010.77 1011.61 1012.41 1013.13 1013.76 1014.31 1014.79 1015.22 1015.63 1016.04 1016.48 1016.95 1017.45 1017.97 1018.48 1018.98 1019.45 1019.88 1020.26 1020.61 1020.92 1021.22 1021.51 1021.80 1022.07 1022.34 1022.59 1022.82 1023.01 1023.17 1023.30 1023.39 1023.45 1023.46 1023.43 1023.36 1023.24 1023.07 1022.86 1022.60 1022.30 1021.99 1021.66
1010.60 1011.45 1012.26 1012.99 1013.63 1014.18 1014.65 1015.08 1015.48 1015.88 1016.30 1016.75 1017.24 1017.76 1018.28 1018.80 1019.29 1019.74 1020.15 1020.51 1020.84 1021.14 1021.42 1021.69 1021.95 1022.20 1022.45 1022.68 1022.89 1023.09 1023.26 1023.41 1023.52 1023.60 1023.63 1023.60 1023.52 1023.38 1023.18 1022.93 1022.63 1022.30 1021.96
1010.45 1011.29 1012.10 1012.83 1013.47 1014.02 1014.49 1014.91 1015.31 1015.70 1016.11 1016.55 1017.03 1017.55 1018.07 1018.59 1019.10 1019.56 1019.99 1020.37 1020.70 1021.01 1021.28 1021.54 1021.79 1022.04 1022.28 1022.52 1022.75 1022.98 1023.19 1023.38 1023.55 1023.67 1023.75 1023.78 1023.74 1023.63 1023.46 1023.23 1022.94 1022.62 1022.28
1010.29 1011.12 1011.91 1012.63 1013.26 1013.81 1014.29 1014.72 1015.11 1015.51 1015.92 1016.36 1016.84 1017.35 1017.87 1018.40 1018.90 1019.37 1019.80 1020.18 1020.52 1020.82 1021.10 1021.35 1021.60 1021.84 1022.09 1022.33 1022.58 1022.82 1023.06 1023.28 1023.48 1023.65 1023.77 1023.83 1023.83 1023.76 1023.63 1023.43 1023.17 1022.87 1022.54
1010.11 1010.91 1011.67 1012.38 1013.01 1013.56 1014.05 1014.49 1014.91 1015.32 1015.75 1016.20 1016.68 1017.18 1017.70 1018.21 1018.70 1019.16 1019.58 1019.96 1020.29 1020.59 1020.86 1021.12 1021.37 1021.61 1021.86 1022.10 1022.36 1022.61 1022.86 1023.09 1023.31 1023.50 1023.64 1023.74 1023.77 1023.75 1023.65 1023.49 1023.28 1023.02 1022.72
1009.89 1010.65 1011.39 1012.07 1012.70 1013.26 1013.77 1014.24 1014.69 1015.13 1015.58 1016.05 1016.54 1017.04 1017.54 1018.03 1018.50 1018.94 1019.34 1019.70 1020.02 1020.32 1020.59 1020.85 1021.10 1021.35 1021.60 1021.85 1022.10 1022.35 1022.59 1022.82 1023.04 1023.24 1023.40 1023.51 1023.58 1023.58 1023.53 1023.42 1023.25 1023.03 1022.78
1009.62 1010.35 1011.05 1011.72 1012.34 1012.92 1013.46 1013.97 1014.45 1014.93 1015.42 1015.91 1016.40 1016.89 1017.37 1017.84 1018.28 1018.69 1019.06 1019.41 1019.72 1020.01 1020.29 1020.56 1020.82 1021.08 1021.33 1021.57 1021.82 1022.05 1022.28 1022.50 1022.71 1022.90 1023.06 1023.19 1023.27 1023.31 1023.29 1023.22 1023.10 1022.93 1022.73
1009.29 1009.99 1010.67 1011.33 1011.95 1012.55 1013.12 1013.66 1014.19 1014.72 1015.23 1015.74 1016.23 1016.71 1017.17 1017.61 1018.01 1018.39 1018.74 1019.07 1019.39 1019.69 1019.98 1020.26 1020.54 1020.81 1021.07 1021.31 1021.54 1021.77 1021.97 1022.17 1022.36 1022.53 1022.69 1022.82 1022.92 1022.97 1022.99 1022.96 1022.88 1022.76 1022.60
1008.88 1009.57 1010.24 1010.89 1011.53 1012.15 1012.75 1013.33 1013.90 1014.46 1015.00 1015.51 1016.01 1016.48 1016.91 1017.32 1017.70 1018.05 1018.39 1018.72 1019.04 1019.36 1019.67 1019.98 1020.28 1020.57 1020.83 1021.08 1021.30 1021.50 1021.69 1021.86 1022.03 1022.18 1022.33 1022.45 1022.56 1022.64 1022.68 1022.68 1022.64 1022.56 1022.45
1008.41 1009.09 1009.76 1010.42 1011.07 1011.71 1012.34 1012.96 1013.56 1014.14 1014.70 1015.23 1015.72 1016.17 1016.59 1016.97 1017.33 1017.67 1018.01 1018.35 1018.69 1019.03 1019.38 1019.72 1020.05 1020.36 1020.63 1020.88 1021.09 1021.28 1021.44 1021.59 1021.73 1021.87 1022.01 1022.14 1022.25 1022.35 1022.42 1022.45 1022.44 1022.40 1022.33
1007.85 1008.54 1009.23 1009.91 1010.58 1011.25 1011.90 1012.55 1013.17 1013.77 1014.34 1014.87 1015.35 1015.79 1016.20 1016.57 1016.93 1017.28 1017.63 1017.99 1018.36 1018.74 1019.12 1019.50 1019.86 1020.18 1020.47 1020.71 1020.92 1021.09 1021.23 1021.36 1021.49 1021.62 1021.75 1021.89 1022.02 1022.13 1022.23 1022.29 1022.32 1022.32 1022.30
1007.23 1007.94 1008.65 1009.35 1010.05 1010.74 1011.42 1012.09 1012.73 1013.35 1013.92 1014.45 1014.93 1015.37 1015.78 1016.15 1016.52 1016.88 1017.26 1017.65 1018.06 1018.48 1018.90 1019.31 1019.69 1020.03 1020.32 1020.56 1020.75 1020.91 1021.04 1021.16 1021.28 1021.41 1021.55 1021.70 1021.85 1022.00 1022.13 1022.23 1022.30 1022.35 1022.38
1006.54 1007.28 1008.01 1008.74 1009.46 1010.18 1010.89 1011.58 1012.25 1012.87 1013.46 1014.00 1014.48 1014.93 1015.34 1015.73 1016.12 1016.51 1016.92 1017.35 1017.79 1018.25 1018.69 1019.12 1019.51 1019.86 1020.15 1020.38 1020.56 1020.71 1020.83 1020.95 1021.08 1021.22 1021.39 1021.57 1021.76 1021.94 1022.12 1022.27 1022.40 1022.50 1022.58
1005.81 1006.56 1007.31 1008.07 1008.83 1009.58 1010.32 1011.04 1011.72 1012.37 1012.97 1013.52 1014.02 1014.48 1014.91 1015.33 1015.74 1016.16 1016.61 1017.06 1017.54 1018.01 1018.48 1018.91 1019.30 1019.64 1019.92 1020.14 1020.32 1020.47 1020.60 1020.73 1020.88 1021.05 1021.25 1021.48 1021.72 1021.96 1022.19 1022.40 1022.59 1022.75 1022.90
1005.03 1005.80 1006.57 1007.36 1008.15 1008.94 1009.71 1010.46 1011.17 1011.84 1012.46 1013.02 1013.55 1014.03 1014.49 1014.93 1015.37 1015.82 1016.29 1016.77 1017.26 1017.74 1018.20 1018.63 1019.01 1019.34 1019.61 1019.82 1020.00 1020.16 1020.31 1020.47 1020.66 1020.88 1021.14 1021.43 1021.73 1022.04 1022.33 1022.61 1022.86 1023.09 1023.30
1004.25 1005.01 1005.81 1006.63 1007.45 1008.27 1009.08 1009.85 1010.59 1011.28 1011.92 1012.51 1013.06 1013.57 1014.05 1014.52 1014.98 1015.46 1015.94 1016.43 1016.92 1017.39 1017.84 1018.25 1018.61 1018.92 1019.18 1019.40 1019.59 1019.78 1019.97 1020.18 1020.43 1020.72 1021.05 1021.40 1021.78 1022.16 1022.52 1022.87 1023.19 1023.49 1023.76
1003.47 1004.24 1005.05 1005.88 1006.73 1007.58 1008.42 1009.22 1009.98 1010.70 1011.36 1011.97 1012.54 1013.07 1013.57 1014.05 1014.54 1015.02 1015.51 1016.00 1016.47 1016.93 1017.36 1017.75 1018.09 1018.39 1018.66 1018.89 1019.11 1019.34 1019.58 1019.87 1020.19 1020.56 1020.97 1021.41 1021.86 1022.31 1022.74 1023.16 1023.54 1023.89 1024.21
1002.74 1003.50 1004.31 1005.16 1006.03 1006.89 1007.74 1008.57 1009.34 1010.07 1010.75 1011.38 1011.96 1012.50 1013.02 1013.52 1014.01 1014.49 1014.98 1015.45 1015.91 1016.35 1016.76 1017.13 1017.47 1017.77 1018.04 1018.31 1018.57 1018.86 1019.18 1019.54 1019.96 1020.41 1020.91 1021.43 1021.95 1022.47 1022.97 1023.44 1023.87 1024.27 1024.63
1002.09 1002.83 1003.63 1004.47 1005.34 1006.21 1007.07 1007.89 1008.67 1009.40 1010.08 1010.72 1011.30 1011.85 1012.38 1012.89 1013.38 1013.86 1014.34 1014.80 1015.25 1015.67 1016.06 1016.42 1016.76 1017.08 1017.38 1017.69 1018.01 1018.37 1018.78 1019.23 1019.73 1020.28 1020.86 1021.45 1022.05 1022.63 1023.18 1023.69 1024.16 1024.59 1024.98
1001.53 1002.24 1003.02 1003.84 1004.69 1005.54 1006.38 1007.19 1007.96 1008.68 1009.35 1009.98 1010.57 1011.13 1011.65 1012.17 1012.66 1013.15 1013.62 1014.08 1014.51 1014.93 1015.32 1015.68 1016.03 1016.37 1016.72 1017.08 1017.47 1017.91 1018.39 1018.93 1019.52 1020.15 1020.81 1021.47 1022.12 1022.75 1023.34 1023.88 1024.37 1024.82 1025.22
1001.08 1001.75 1002.48 1003.27 1004.08 1004.89 1005.69 1006.47 1007.21 1007.91 1008.57 1009.19 1009.77 1010.33 1010.87 1011.38 1011.89 1012.38 1012.86 1013.32 1013.76 1014.18 1014.58 1014.96 1015.33 1015.71 1016.10 1016.51 1016.97 1017.48 1018.04 1018.66 1019.32 1020.01 1020.73 1021.44 1022.14 1022.80 1023.42 1023.98 1024.49 1024.95 1025.35
1000.70 1001.32 1002.00 1002.72 1003.47 1004.23 1004.98 1005.72 1006.42 1007.09 1007.73 1008.34 1008.93 1009.49 1010.04 1010.58 1011.10 1011.61 1012.11 1012.59 1013.05 1013.49 1013.91 1014.32 1014.72 1015.13 1015.57 1016.03 1016.54 1017.11 1017.73 1018.40 1019.11 1019.86 1020.62 1021.37 1022.09 1022.77 1023.41 1023.98 1024.50 1024.96 1025.37
1000.37 1000.91 1001.52 1002.17 1002.86 1003.55 1004.25 1004.93 1005.59 1006.24 1006.86 1007.47 1008.06 1008.64 1009.21 1009.78 1010.33 1010.88 1011.41 1011.92 1012.41 1012.88 1013.34 1013.78 1014.22 1014.67 1015.14 1015.65 1016.20 1016.80 1017.46 1018.16 1018.91 1019.68 1020.46 1021.23 1021.97 1022.66 1023.31 1023.89 1024.41 1024.87 1025.28
1000.00 1000.47 1001.00 1001.58 1002.19 1002.82 1003.45 1004.09 1004.72 1005.35 1005.97 1006.58 1007.19 1007.80 1008.40 1009.00 1009.60 1010.19 1010.76 1011.32 1011.86 1012.37 1012.87 1013.35 1013.83 1014.31 1014.82 1015.35 1015.93 1016.56 1017.23 1017.95 1018.70 1019.48 1020.26 1021.03 1021.78 1022.48 1023.13 1023.72 1024.24 1024.71 1025.12
999.55 999.93 1000.39 1000.89 1001.43 1002.00 1002.59 1003.20 1003.81 1004.42 1005.05 1005.67 1006.31 1006.95 1007.59 1008.24 1008.89 1009.53 1010.15 1010.76 1011.35 1011.92 1012.46 1012.99 1013.51 1014.03 1014.57 1015.13 1015.72 1016.36 1017.04 1017.75 1018.50 1019.27 1020.05 1020.81 1021.55 1022.25 1022.90 1023.49 1024.02 1024.49 1024.90
Thickness
5648 5646 5644 5641 5638 5636 5634 5632 5630 5629 5627 5626 5624 5623 5622 5621 5621 5621 5620 5619 5619 5619 5620 5620 5620 5620 5620 5620 5621 5621 5621 5620 5618 5619 5620 5622 5624 5625 5627 5629 5630 5632 5633
5644 5641 5638 5636 5633 5630 5628 5626 5625 5622 5621 5619 5618 5617 5616 5615 5614 5614 5614 5613 5613 5613 5613 5613 5614 5615 5614 5614 5614 5615 5615 5615 5614 5613 5614 5615 5617 5619 5620 5622 5624 5626 5627
5638 5635 5632 5629 5627 5624 5622 5620 5618 5616 5614 5612 5611 5609 5609 5608 5608 5608 5608 5607 5607 5607 5607 5607 5608 5608 5608 5608 5609 5609 5609 5610 5608 5607 5607 5608 5609 5611 5613 5615 5617 5619 5621
5631 5628 5625 5622 5620 5617 5615 5613 5611 5609 5606 5605 5603 5602 5602 5602 5601 5601 5601 5601 5600 5601 5601 5601 5602 5602 5603 5602 5603 5603 5603 5602 5602 5601 5601 5601 5602 5604 5605 5606 5608 5610 5612
5624 5621 5618 5616 5613 5610 5607 5605 5603 5601 5599 5597 5595 5594 5594 5594 5595 5594 5594 5594 5593 5594 5594 5595 5596 5597 5598 5598 5598 5597 5596 5595 5595 5595 5594 5594 5595 5596 5597 5599 5600 5602 5604
5616 5613 5610 5608 5605 5603 5600 5597 5595 5592 5590 5589 5587 5586 5586 5587 5588 5588 5587 5586 5586 5586 5587 5588 5589 5590 5591 5592 5593 5593 5592 5591 5589 5589 5588 5588 5589 5590 5590 5592 5592 5593 5595
5609 5606 5603 5600 5598 5595 5593 5589 5586 5584 5582 5580 5579 5578 5578 5579 5580 5581 5580 5579 5578 5579 5579 5580 5582 5584 5584 5584 5585 5585 5585 5586 5586 5585 5584 5583 5584 5585 5585 5585 5585 5586 5588
5601 5598 5596 5593 5590 5588 5585 5582 5579 5576 5574 5572 5571 5570 5570 5571 5572 5572 5572 5571 5571 5571 5572 5573 5573 5575 5577 5577 5577 5577 5577 5577 5578 5579 5579 5580 5581 5580 5580 5581 5580 5580 5580
5594 5591 5589 5586 5584 5581 5578 5575 5572 5569 5567 5564 5563 5562 5562 5562 5564 5564 5564 5563 5563 5564 5565 5566 5566 5567 5569 5569 5569 5568 5569 5569 5571 5572 5573 5573 5574 5574 5573 5572 5571 5571 5572
5587 5585 5582 5580 5577 5574 5571 5569 5566 5563 5560 5558 5556 5555 5554 5555 5556 5557 5557 5556 5555 5556 5557 5558 5558 5559 5561 5561 5560 5560 5561 5562 5562 5563 5563 5565 5565 5566 5566 5566 5565 5564 5565
5580 5578 5575 5573 5570 5568 5565 5562 5559 5556 5553 5550 5548 5548 5547 5548 5548 5549 5549 5548 5547 5548 5548 5549 5550 5552 5553 5553 5553 5553 5554 5554 5553 5553 5554 5554 5555 5557 5558 5558 5559 5559 5558
5573 5570 5567 5565 5563 5561 5557 5554 5552 5549 5546 5544 5542 5541 5540 5540 5541 5541 5541 5541 5541 5539 5540 5541 5542 5543 5544 5544 5544 5545 5546 5545 5544 5544 5544 5544 5545 5546 5548 5550 5551 5551 5552
5565 5562 5560 5558 5556 5553 5550 5547 5544 5542 5540 5538 5536 5534 5533 5533 5532 5533 5533 5533 5532 5531 5532 5533 5533 5533 5534 5534 5535 5536 5536 5535 5534 5534 5534 5535 5536 5537 5539 5541 5542 5542 5543
5558 5555 5553 5551 5548 5546 5544 5541 5538 5536 5534 5532 5530 5528 5526 5525 5524 5524 5524 5523 5523 5522 5521 5522 5523 5523 5523 5524 5524 5525 5525 5525 5524 5524 5524 5525 5526 5527 5528 5530 5531 5532 5532
5551 5548 5546 5544 5542 5539 5537 5534 5533 5531 5529 5527 5525 5523 5520 5518 5519 5518 5516 5515 5514 5513 5512 5511 5511 5511 5511 5511 5512 5513 5514 5513 5513 5513 5514 5514 5515 5517 5518 5519 5520 5521 5521
5544 5542 5539 5537 5534 5532 5530 5527 5526 5524 5523 5522 5519 5517 5515 5514 5513 5512 5510 5509 5507 5505 5503 5501 5501 5501 5501 5501 5501 5501 5502 5503 5503 5504 5504 5504 5505 5506 5507 5508 5509 5510 5512
5539 5536 5533 5531 5528 5526 5523 5521 5518 5516 5515 5514 5512 5511 5509 5508 5506 5505 5503 5502 5499 5497 5494 5493 5493 5493 5493 5493 5492 5492 5492 5493 5494 5494 5493 5494 5494 5495 5496 5497 5498 5500 5501
5532 5530 5528 5525 5523 5520 5517 5514 5512 5509 5507 5505 5504 5503 5502 5500 5499 5497 5496 5493 5490 5488 5486 5485 5484 5484 5484 5484 5484 5483 5483 5483 5483 5483 5483 5483 5483 5484 5485 5486 5487 5488 5490
5526 5523 5521 5518 5516 5513 5510 5507 5504 5502 5499 5497 5495 5494 5494 5492 5491 5489 5488 5484 5482 5480 5479 5478 5477 5477 5476 5475 5475 5475 5474 5473 5473 5472 5472 5472 5472 5472 5473 5474 5475 5477 5478
5520 5519 5515 5511 5508 5505 5502 5500 5497 5494 5491 5489 5487 5486 5485 5483 5481 5480 5479 5477 5475 5474 5473 5471 5470 5469 5468 5467 5466 5465 5465 5464 5464 5463 5462 5462 5461 5461 5462 5462 5464 5465 5467
5513 5511 5509 5505 5502 5499 5496 5493 5490 5487 5485 5483 5481 5480 5479 5476 5475 5473 5472 5470 5469 5468 5466 5465 5463 5463 5461 5460 5458 5457 5456 5455 5454 5453 5453 5453 5452 5451 5451 5452 5453 5454 5455
5506 5504 5501 5498 5495 5493 5490 5487 5484 5481 5479 5476 5474 5472 5472 5469 5468 5466 5464 5463 5462 5461 5460 5458 5457 5456 5454 5452 5451 5450 5448 5447 5446 5445 5444 5444 5444 5443 5443 5442 5443 5444 5444
5500 5497 5494 5491 5488 5486 5483 5480 5477 5474 5472 5469 5467 5465 5463 5461 5460 5459 5457 5456 5455 5454 5452 5451 5449 5448 5446 5445 5444 5443 5442 5441 5440 5439 5437 5436 5436 5435 5434 5434 5434 5434 5434
5493 5490 5487 5484 5481 5478 5475 5473 5470 5467 5465 5462 5459 5457 5455 5453 5452 5451 5450 5448 5447 5446 5444 5443 5441 5440 5438 5437 5436 5436 5435 5434 5433 5432 5431 5429 5428 5427 5426 5425 5425 5425 5425
5486 5483 5480 5476 5474 5471 5468 5465 5463 5460 5457 5455 5452 5450 5448 5446 5444 5443 5442 5440 5438 5437 5436 5435 5433 5432 5431 5430 5429 5429 5428 5427 5426 5425 5424 5422 5421 5420 5418 5417 5417 5417 5416
5479 5476 5473 5469 5467 5464 5461 5458 5455 5452 5449 5447 5445 5443 5441 5439 5437 5435 5434 5432 5431 5429 5428 5427 5426 5425 5424 5423 5423 5422 5421 5420 5419 5418 5416 5415 5413 5412 5411 5410 5409 5408 5408